FW8537 Weather Reports


Display with metric or nautical units.
time (UTC)temp
F
wind
direction
speed
MPH
gust
MPH
rain 1hr
in
rain 24hr
in
rain mn
in
humidity
%
barometer
mb
20260902161629 86 75 1.0 5.0 0.00 0.02 0.02 83 1012.6
20260902161605 86 84 1.0 5.0 0.00 0.02 0.02 83 1012.5
20260902161128 87 98 1.0 5.0 0.00 0.02 0.02 82 1012.6
20260902160630 87 32 1.0 3.0 0.00 0.02 0.02 82 1012.6
20260902160129 86 323 2.0 6.0 0.00 0.02 0.02 81 1013.0
20260902160036 86 15 1.0 6.0 0.00 0.02 0.02 82 1012.9
20260902155629 87 101 2.0 6.0 0.00 0.02 0.02 81 1013.0
20260902155130 86 342 1.0 3.0 0.00 0.02 0.02 80 1013.0
20260902154628 86 11 2.0 6.0 0.00 0.02 0.02 81 1012.9
20260902154531 85 34 0.0 5.0 0.00 0.02 0.02 82 1012.8
20260902154130 86 95 2.0 6.0 0.00 0.02 0.02 82 1012.9
20260902153923 87 299 1.0 3.0 0.00 0.02 0.02 82 1012.9
20260902153130 86 25 1.0 3.0 0.00 0.02 0.02 82 1012.7
20260902153032 86 25 1.0 3.0 0.00 0.02 0.02 82 1012.6
20260902152630 86 317 1.0 3.0 0.00 0.02 0.02 83 1012.7
20260902152130 85 340 1.0 3.0 0.00 0.02 0.02 83 1012.7
20260902151629 85 142 1.0 3.0 0.00 0.02 0.02 83 1012.6
20260902151511 85 60 0.0 3.0 0.00 0.02 0.02 84 1012.4
20260902151135 85 34 1.0 5.0 0.00 0.02 0.02 85 1012.6
20260902150920 85 106 2.0 5.0 0.00 0.02 0.02 85 1012.6
20260902150420 85 88 1.0 4.0 0.00 0.02 0.02 85 1012.7
20260902150055 84 32 2.0 4.0 0.00 0.02 0.02 85 1012.6
20260902145631 85 80 1.0 4.0 0.00 0.02 0.02 85 1012.7
20260902145129 85 331 1.0 3.0 0.00 0.02 0.02 85 1012.7
20260902144628 85 36 1.0 3.0 0.00 0.02 0.02 85 1012.6
20260902144543 85 36 1.0 3.0 0.00 0.02 0.02 85 1012.5
20260902144129 85 26 0.0 3.0 0.00 0.02 0.02 85 1012.6
20260902143630 85 90 0.0 3.0 0.00 0.02 0.02 86 1012.6
20260902143410 85 317 1.0 3.0 0.00 0.02 0.02 85 1012.6
20260902143026 84 317 0.0 3.0 0.00 0.02 0.02 85 1012.5
20260902142630 85 314 2.0 4.0 0.00 0.02 0.02 85 1012.6
20260902142128 84 355 1.0 4.0 0.00 0.02 0.02 86 1012.6
20260902141630 84 303 1.0 4.0 0.00 0.02 0.02 87 1012.6
20260902141510 84 28 1.0 4.0 0.00 0.02 0.02 87 1012.5
20260902141129 84 16 1.0 4.0 0.00 0.02 0.02 87 1012.6
20260902140630 83 271 1.0 3.0 0.00 0.02 0.02 89 1012.6
20260902140130 83 88 1.0 3.0 0.00 0.02 0.02 89 1012.5
20260902140004 82 44 0.0 3.0 0.00 0.02 0.02 89 1012.4
20260902135631 82 81 1.0 3.0 0.00 0.02 0.02 89 1012.5
20260902135129 82 339 1.0 2.0 0.00 0.02 0.02 90 1012.5
20260902134919 82 286 1.0 2.0 0.00 0.02 0.02 90 1012.5
20260902134505 81 289 0.0 2.0 0.00 0.02 0.02 90 1012.4
20260902134131 82 269 1.0 3.0 0.00 0.02 0.02 91 1012.5
20260902133630 82 299 1.0 3.0 0.00 0.02 0.02 91 1012.5
20260902133133 81 344 1.0 3.0 0.00 0.02 0.02 91 1012.5
20260902133010 81 342 1.0 3.0 0.00 0.02 0.02 92 1012.4
20260902132629 81 345 2.0 5.0 0.00 0.02 0.02 92 1012.5
20260902132129 81 355 2.0 5.0 0.00 0.02 0.02 92 1012.5
20260902131629 81 333 1.0 4.0 0.00 0.02 0.02 92 1012.5
20260902131504 81 19 0.0 3.0 0.00 0.02 0.02 93 1012.3
20260902131129 81 336 1.0 3.0 0.00 0.02 0.02 93 1012.5
20260902130630 81 19 2.0 4.0 0.00 0.02 0.02 93 1012.5
20260902130129 81 339 1.0 4.0 0.00 0.02 0.02 93 1012.3
20260902130007 80 336 0.0 4.0 0.00 0.02 0.02 93 1012.2
20260902125629 81 0 1.0 4.0 0.00 0.02 0.02 94 1012.3
20260902125426 80 304 1.0 3.0 0.00 0.02 0.02 93 1012.3
20260902124927 80 272 1.0 3.0 0.00 0.02 0.02 93 1012.2
20260902124504 80 277 0.0 2.0 0.00 0.02 0.02 93 1012.1
20260902124130 80 272 0.0 2.0 0.00 0.02 0.02 94 1012.2
20260902123630 80 323 0.0 1.0 0.00 0.02 0.02 94 1012.2
20260902123130 80 299 0.0 1.0 0.00 0.02 0.02 94 1012.0
20260902123058 79 299 0.0 1.0 0.00 0.02 0.02 94 1011.9
20260902122629 79 304 0.0 1.0 0.00 0.02 0.02 93 1012.0
20260902122130 79 317 0.0 0.0 0.00 0.02 0.02 94 1012.0
20260902121628 79 317 0.0 0.0 0.00 0.02 0.02 94 1012.0
20260902121533 78 317 0.0 0.0 0.00 0.02 0.02 94 1011.9
20260902121132 78 302 0.0 0.0 0.00 0.02 0.02 94 1012.0
20260902120630 78 302 0.0 0.0 0.00 0.02 0.02 94 1012.0
20260902120132 78 302 0.0 0.0 0.00 0.02 0.02 94 1011.8
20260902120031 78 302 0.0 0.0 0.00 0.02 0.02 94 1011.7
20260902115919 78 302 0.0 0.0 0.00 0.02 0.02 94 1011.8
20260902115129 78 302 0.0 0.0 0.00 0.02 0.02 94 1011.8
20260902114629 77 302 0.0 0.0 0.01 0.02 0.02 94 1011.7
20260902114508 77 302 0.0 0.0 0.01 0.02 0.02 94 1011.6
20260902114128 77 302 0.0 0.0 0.01 0.02 0.02 94 1011.7
20260902113630 77 302 0.0 0.0 0.02 0.02 0.02 94 1011.7
20260902113129 77 302 0.0 0.0 0.02 0.02 0.02 94 1011.7
20260902113002 77 302 0.0 0.0 0.02 0.02 0.02 94 1011.5
20260902112629 77 302 0.0 0.0 0.02 0.02 0.02 94 1011.7
20260902112129 77 302 0.0 0.0 0.02 0.02 0.02 94 1011.7
20260902111629 77 302 0.0 0.0 0.02 0.02 0.02 94 1011.6
20260902111503 76 302 0.0 0.0 0.02 0.02 0.02 94 1011.4
20260902111129 77 302 0.0 0.0 0.02 0.02 0.02 94 1011.6
20260902110630 77 302 0.0 0.0 0.02 0.02 0.02 94 1011.6
20260902110425 77 302 0.0 0.0 0.02 0.02 0.02 94 1011.5
20260902110003 76 302 0.0 0.0 0.02 0.02 0.02 94 1011.4
20260902105629 77 302 0.0 0.0 0.02 0.02 0.02 94 1011.5
20260902105130 77 302 0.0 0.0 0.02 0.02 0.02 94 1011.5
20260902104629 77 302 0.0 0.0 0.01 0.01 0.01 94 1011.4
20260902104505 76 302 0.0 0.0 0.01 0.01 0.01 94 1011.2
20260902104131 77 302 0.0 0.0 0.01 0.01 0.00 94 1011.4
20260902103631 77 302 0.0 0.0 0.00 0.00 0.00 94 1011.4
20260902103424 77 302 0.0 1.0 0.00 0.00 0.00 94 1011.0
20260902103048 76 302 0.0 1.0 0.00 0.00 0.00 94 1010.9
20260902102629 77 302 0.0 1.0 0.00 0.00 0.00 94 1011.0
20260902102130 77 302 0.0 1.0 0.00 0.00 0.00 93 1011.0
20260902101629 76 302 0.0 0.0 0.00 0.00 0.00 93 1011.2
20260902101537 76 302 0.0 0.0 0.00 0.00 0.00 93 1011.1
20260902101129 77 302 0.0 0.0 0.00 0.00 0.00 93 1011.2
20260902100629 76 302 0.0 0.0 0.00 0.00 0.00 93 1011.2
20260902100130 76 302 0.0 0.0 0.00 0.00 0.00 93 1011.2
20260902100030 76 302 0.0 0.0 0.00 0.00 0.00 93 1011.0
20260902095916 76 302 0.0 0.0 0.00 0.00 0.00 93 1011.2
20260902095419 76 302 0.0 0.0 0.00 0.00 0.00 93 1011.2
20260902094630 76 302 0.0 0.0 0.00 0.00 0.00 93 1011.0
20260902094534 76 302 0.0 0.0 0.00 0.00 0.00 93 1010.9
20260902094205 76 302 0.0 0.0 0.00 0.00 0.00 93 1011.0
20260902094153 76 302 0.0 0.0 0.00 0.00 0.00 93 1011.0
20260902093129 77 302 0.0 0.0 0.00 0.00 0.00 93 1011.0
20260902093025 76 302 0.0 0.0 0.00 0.00 0.00 93 1010.9
20260902092630 77 302 0.0 0.0 0.00 0.00 0.00 93 1011.0
20260902092130 77 302 0.0 0.0 0.00 0.00 0.00 93 1011.0
20260902091723 77 302 0.0 0.0 0.00 0.00 0.00 93 1011.2
20260902091702 77 302 0.0 0.0 0.00 0.00 0.00 93 1011.2
20260902091643 76 302 0.0 0.0 0.00 0.00 0.00 93 1011.0
20260902090631 77 302 0.0 0.0 0.00 0.00 0.00 93 1011.2
20260902090130 77 302 0.0 0.0 0.00 0.00 0.00 93 1011.0
20260902090002 76 302 0.0 0.0 0.00 0.00 0.00 93 1010.9
20260902085630 77 302 0.0 0.0 0.00 0.00 0.00 93 1011.0
20260902085131 77 302 0.0 0.0 0.00 0.00 0.00 93 1011.0
20260902084631 77 302 0.0 0.0 0.00 0.00 0.00 93 1010.8
20260902084607 76 302 0.0 0.0 0.00 0.00 0.00 93 1010.6
20260902084424 77 302 0.0 0.0 0.00 0.00 0.00 93 1010.8
20260902083630 76 302 0.0 0.0 0.00 0.00 0.00 93 1010.8
20260902083131 77 302 0.0 0.0 0.00 0.00 0.00 93 1011.0
20260902083110 76 302 0.0 0.0 0.00 0.00 0.00 93 1010.9
20260902082623 77 302 0.0 0.0 0.00 0.00 0.00 93 1011.0
20260902082122 77 302 0.0 1.0 0.00 0.00 0.00 93 1011.0
20260902081622 77 302 0.0 1.0 0.00 0.00 0.00 93 1011.0
20260902081531 76 302 0.0 1.0 0.00 0.00 0.00 93 1010.9
20260902081119 77 302 0.0 0.0 0.00 0.00 0.00 93 1011.0
20260902080618 77 303 0.0 0.0 0.00 0.00 0.00 93 1011.0
20260902080116 77 302 0.0 0.0 0.00 0.00 0.00 93 1011.0
20260902080033 76 302 0.0 0.0 0.00 0.00 0.00 93 1010.8
20260902075613 77 302 0.0 0.0 0.00 0.00 0.00 93 1011.0
20260902075405 77 302 0.0 0.0 0.00 0.00 0.00 93 1011.0
20260902074618 77 302 0.0 0.0 0.00 0.00 0.00 93 1011.0
20260902074526 76 302 0.0 0.0 0.00 0.00 0.00 93 1010.9
20260902074116 77 302 0.0 0.0 0.00 0.00 0.00 93 1011.0
20260902073902 77 302 0.0 0.0 0.00 0.00 0.00 93 1011.0
20260902073113 77 302 0.0 0.0 0.00 0.00 0.00 93 1011.0
20260902073008 76 302 0.0 0.0 0.00 0.00 0.00 93 1010.8
20260902072609 77 302 0.0 0.0 0.00 0.00 0.00 93 1011.0
20260902072109 77 302 0.0 0.0 0.00 0.00 0.00 93 1011.0
20260902071605 77 302 0.0 0.0 0.00 0.00 0.00 93 1011.0
20260902071504 76 302 0.0 0.0 0.00 0.00 0.00 93 1010.9
20260902071104 77 302 0.0 1.0 0.00 0.00 0.00 93 1011.0
20260902070602 77 302 0.0 1.0 0.00 0.00 0.00 93 1011.0
20260902070010 76 340 0.0 0.0 0.00 0.00 0.00 93 1010.9
20260902065606 77 340 0.0 0.0 0.00 0.00 0.00 93 1011.1
20260902065225 77 340 0.0 0.0 0.00 0.00 0.00 93 1011.1
20260902065219 77 340 0.0 0.0 0.00 0.00 0.00 92 1011.1
20260902065200 77 340 0.0 0.0 0.00 0.00 0.00 93 1011.1
20260902064557 76 340 0.0 0.0 0.00 0.00 0.00 93 1011.0
20260902063600 77 340 0.0 0.0 0.00 0.00 0.00 93 1011.1
20260902063102 77 340 0.0 0.0 0.00 0.00 0.00 93 1011.3
20260902063037 76 340 0.0 0.0 0.00 0.00 0.00 93 1011.1
20260902062602 77 340 0.0 0.0 0.00 0.00 0.00 92 1011.3
20260902062101 77 340 0.0 0.0 0.00 0.00 0.00 92 1011.3
20260902061601 77 340 0.0 0.0 0.00 0.00 0.00 92 1011.4
20260902061543 76 340 0.0 0.0 0.00 0.00 0.00 92 1011.3
20260902061058 77 340 0.0 0.0 0.00 0.00 0.00 92 1011.4
20260902060848 77 340 0.0 0.0 0.00 0.00 0.00 92 1011.4
20260902060057 77 340 0.0 0.0 0.00 0.00 0.00 92 1011.5
20260902060020 76 340 0.0 0.0 0.00 0.03 0.00 92 1011.3
20260902055556 77 340 0.0 0.0 0.00 0.00 0.00 92 1011.5
20260902055053 77 340 0.0 0.0 0.00 0.00 0.00 92 1011.5
20260902054553 77 340 0.0 0.0 0.00 0.00 0.00 92 1011.5
20260902054504 76 340 0.0 0.0 0.00 0.03 0.00 92 1011.4
20260902054050 77 340 0.0 0.0 0.00 0.00 0.00 92 1011.5
20260902053550 77 340 0.0 0.0 0.00 0.00 0.00 92 1011.5
20260902053052 77 340 0.0 0.0 0.00 0.00 0.00 92 1011.5
20260902053006 77 340 0.0 0.0 0.00 0.03 0.00 92 1011.4
20260902052548 77 340 0.0 0.0 0.00 0.00 0.00 92 1011.5
20260902052047 77 340 0.0 0.0 0.00 0.01 0.00 92 1011.5
20260902051830 77 340 0.0 0.0 0.00 0.01 0.00 92 1011.6
20260902051503 77 340 0.0 0.0 0.00 0.03 0.00 92 1011.5
20260902051035 77 340 0.0 0.0 0.00 0.03 0.00 92 1011.6
20260902050533 77 340 0.0 0.0 0.00 0.03 0.00 92 1011.6
20260902050039 76 340 0.0 0.0 0.00 0.03 0.00 92 1011.6
20260902050034 77 340 0.0 0.0 0.00 0.03 0.00 92 1011.7
20260902045532 77 340 0.0 0.0 0.00 0.03 0.00 92 1011.7
20260902045032 77 340 0.0 0.0 0.00 0.03 0.00 92 1011.7
20260902044534 77 340 0.0 0.0 0.00 0.03 0.00 92 1011.7
20260902044532 77 340 0.0 0.0 0.00 0.03 0.00 92 1011.5
20260902044314 77 340 0.0 0.0 0.00 0.03 0.00 92 1011.7
20260902043530 77 340 0.0 0.0 0.00 0.03 0.00 92 1011.7
20260902043029 77 340 0.0 0.0 0.00 0.03 0.00 92 1011.7
20260902043011 77 340 0.0 0.0 0.00 0.03 0.00 92 1011.5
20260902042531 77 340 0.0 0.0 0.00 0.03 0.00 92 1011.7
20260902042030 77 340 0.0 0.0 0.00 0.03 0.00 92 1011.7
20260902041531 77 340 0.0 0.0 0.00 0.03 0.00 92 1011.9
20260902041505 77 340 0.0 0.0 0.00 0.03 0.00 92 1011.8
20260902041031 77 340 0.0 0.0 0.00 0.03 0.00 92 1011.9
20260902040817 78 340 0.0 0.0 0.00 0.03 0.00 92 1011.9
20260902040030 78 340 0.0 0.0 0.00 0.03 0.00 92 1012.0
20260902040005 77 340 0.0 0.0 0.00 0.03 0.03 92 1011.9
20260902035818 78 340 0.0 0.0 0.00 0.03 0.03 92 1012.0
20260902035031 78 340 0.0 0.0 0.00 0.03 0.03 92 1012.0
20260902034529 78 340 0.0 0.0 0.00 0.03 0.03 91 1012.1
20260902034505 77 340 0.0 0.0 0.00 0.03 0.03 92 1012.0
20260902034029 78 340 0.0 0.0 0.00 0.03 0.03 92 1012.1
20260902033529 78 340 0.0 0.0 0.00 0.03 0.03 92 1012.1
20260902033042 78 340 0.0 0.0 0.00 0.03 0.03 91 1012.0
20260902033028 78 340 0.0 0.0 0.00 0.03 0.03 91 1012.1
20260902032530 78 340 0.0 0.0 0.00 0.03 0.03 91 1012.1
20260902032316 78 344 0.0 0.0 0.00 0.03 0.03 92 1012.1
20260902031815 78 344 0.0 0.0 0.00 0.03 0.03 91 1012.5
20260902031534 77 344 0.0 0.0 0.00 0.03 0.03 91 1012.4
20260902031030 78 344 0.0 0.0 0.00 0.03 0.03 91 1012.5
20260902030529 78 344 0.0 0.0 0.00 0.03 0.03 91 1012.5
20260902030029 78 344 0.0 0.0 0.00 0.03 0.03 91 1012.5
20260902030005 78 344 0.0 0.0 0.00 0.03 0.03 91 1012.4
20260902025530 78 344 0.0 0.0 0.00 0.03 0.03 91 1012.5
20260902025319 78 344 0.0 1.0 0.00 0.03 0.03 91 1012.5
20260902024530 78 344 0.0 1.0 0.00 0.03 0.03 91 1012.6
20260902024505 78 344 0.0 1.0 0.00 0.03 0.03 91 1012.4
20260902024030 78 344 0.0 0.0 0.00 0.03 0.03 91 1012.6
20260902023529 78 344 0.0 0.0 0.00 0.03 0.03 91 1012.6
20260902023038 78 344 0.0 0.0 0.00 0.03 0.03 91 1012.4
20260902023028 78 344 0.0 0.0 0.00 0.03 0.03 91 1012.6
20260902022531 78 344 0.0 0.0 0.00 0.03 0.03 91 1012.6
20260902022032 78 344 0.0 0.0 0.00 0.03 0.03 91 1012.6
20260902021537 78 344 0.0 0.0 0.00 0.03 0.03 91 1012.3
20260902021532 78 344 0.0 0.0 0.00 0.03 0.03 91 1012.5
20260902021030 78 344 0.0 0.0 0.00 0.03 0.03 91 1012.5
20260902020530 78 344 0.0 0.0 0.00 0.03 0.03 91 1012.5
20260902020036 78 344 0.0 0.0 0.00 0.03 0.03 90 1012.1
20260902020032 78 344 0.0 0.0 0.00 0.03 0.03 90 1012.2
20260902015530 78 344 0.0 0.0 0.00 0.03 0.03 90 1012.2
20260902015031 78 344 0.0 0.0 0.00 0.03 0.03 90 1012.2
20260902014536 78 344 0.0 0.0 0.00 0.03 0.03 90 1012.1
20260902014531 78 344 0.0 0.0 0.00 0.03 0.03 90 1012.2
20260902014030 79 344 0.0 0.0 0.00 0.03 0.03 90 1012.2
20260902013531 79 344 0.0 1.0 0.00 0.03 0.03 90 1012.2
20260902013108 79 344 0.0 1.0 0.00 0.03 0.03 90 1012.0
20260902013058 79 344 0.0 1.0 0.00 0.03 0.03 90 1012.0
20260902013034 78 344 0.0 1.0 0.00 0.03 0.03 90 1011.9
20260902012320 79 10 0.0 1.0 0.00 0.03 0.03 90 1012.0
20260902011538 78 10 0.0 1.0 0.00 0.03 0.03 89 1011.8
20260902011524 79 10 0.0 1.0 0.00 0.03 0.03 89 1011.9
20260902011021 79 11 0.0 2.0 0.00 0.03 0.03 89 1011.9
20260902010520 79 11 0.0 2.0 0.00 0.03 0.03 89 1011.9
20260902010311 79 336 0.0 2.0 0.00 0.03 0.03 89 1011.7
20260902005807 79 336 0.0 2.0 0.00 0.03 0.03 89 1011.7
20260902005018 80 327 0.0 2.0 0.00 0.03 0.03 88 1011.7
20260902004604 80 11 1.0 4.0 0.00 0.03 0.03 87 1011.9
20260902004558 80 328 0.0 3.0 0.00 0.03 0.03 88 1011.8
20260902004549 80 327 1.0 3.0 0.00 0.03 0.03 88 1011.9
20260902004532 80 327 0.0 3.0 0.00 0.03 0.03 88 1011.8
20260902003507 81 21 2.0 4.0 0.00 0.03 0.03 87 1011.9
20260902003030 81 42 1.0 7.0 0.00 0.03 0.03 88 1011.9
20260902003005 81 29 2.0 7.0 0.00 0.03 0.03 88 1012.0
20260902002504 81 44 1.0 7.0 0.00 0.03 0.03 88 1012.0
20260902002004 81 55 0.0 2.0 0.00 0.03 0.03 88 1012.0
20260902001532 81 82 0.0 1.0 0.00 0.03 0.03 88 1011.9
20260902001505 81 82 0.0 1.0 0.00 0.03 0.03 88 1012.0
20260902001003 81 82 0.0 1.0 0.00 0.03 0.03 88 1012.0
20260902000503 81 82 0.0 1.0 0.00 0.03 0.03 88 1012.0
20260902000009 81 82 0.0 0.0 0.00 0.03 0.03 88 1011.9
20260902000004 81 82 0.0 0.0 0.00 0.03 0.03 88 1012.0
20260901235503 81 82 0.0 1.0 0.00 0.03 0.03 89 1012.0
20260901235003 82 82 0.0 2.0 0.00 0.03 0.03 89 1012.0
20260901234507 81 83 0.0 5.0 0.00 0.03 0.03 89 1011.7
20260901234503 82 83 1.0 5.0 0.00 0.03 0.03 89 1011.8
20260901234002 82 104 2.0 5.0 0.00 0.03 0.03 89 1011.8
20260901233504 82 92 2.0 3.0 0.00 0.03 0.03 89 1011.8
20260901233011 82 95 1.0 3.0 0.00 0.03 0.03 88 1011.6
20260901233003 83 95 2.0 5.0 0.00 0.03 0.03 88 1011.7
20260901232502 83 80 3.0 6.0 0.00 0.03 0.03 88 1011.7
20260901232002 83 80 2.0 6.0 0.00 0.03 0.03 88 1011.7
20260901231600 83 90 1.0 4.0 0.00 0.03 0.03 87 1011.5
20260901231501 83 82 1.0 4.0 0.00 0.03 0.03 87 1011.6
20260901231002 83 24 2.0 6.0 0.00 0.03 0.03 87 1011.6
20260901230501 83 43 3.0 6.0 0.00 0.03 0.03 87 1011.6
20260901230032 83 28 2.0 5.0 0.00 0.03 0.03 87 1011.4
20260901230001 84 329 2.0 5.0 0.00 0.03 0.03 87 1011.5
20260901225502 84 15 2.0 7.0 0.00 0.03 0.03 87 1011.5
20260901225002 84 40 2.0 7.0 0.00 0.03 0.03 87 1011.5
20260901224525 83 32 1.0 6.0 0.00 0.03 0.03 86 1011.4
20260901224501 84 351 2.0 6.0 0.00 0.03 0.03 86 1011.5
20260901224002 84 26 1.0 4.0 0.00 0.03 0.03 86 1011.5
20260901223504 84 14 1.0 5.0 0.00 0.03 0.03 86 1011.5
20260901223009 84 31 0.0 5.0 0.00 0.03 0.03 86 1011.4
20260901223003 84 31 1.0 6.0 0.00 0.03 0.03 86 1011.5
20260901222502 84 86 1.0 6.0 0.00 0.03 0.03 86 1011.5
20260901222258 84 96 2.0 6.0 0.00 0.03 0.03 86 1011.5
20260901221607 84 329 2.0 5.0 0.00 0.03 0.03 85 1011.4
20260901221503 84 24 2.0 6.0 0.00 0.03 0.03 85 1011.5
20260901221106 84 97 1.0 3.0 0.00 0.03 0.03 85 1011.5
20260901221038 84 67 1.0 4.0 0.00 0.03 0.03 85 1011.5
20260901220038 84 60 0.0 5.0 0.00 0.03 0.03 85 1011.2
20260901220006 84 90 2.0 7.0 0.00 0.03 0.03 85 1011.4
20260901215503 84 39 2.0 7.0 0.00 0.03 0.03 85 1011.4
20260901215003 84 333 2.0 7.0 0.00 0.03 0.03 85 1011.4
20260901214514 84 40 2.0 8.0 0.00 0.03 0.03 85 1011.0
20260901214502 84 23 3.0 8.0 0.00 0.03 0.03 85 1011.2
20260901214002 85 46 3.0 8.0 0.00 0.03 0.03 85 1011.2
20260901213502 85 23 3.0 8.0 0.00 0.03 0.03 84 1011.2
20260901213019 84 150 3.0 7.0 0.00 0.03 0.03 84 1010.9
20260901213005 85 150 2.0 7.0 0.00 0.03 0.03 84 1011.0
20260901212504 85 39 2.0 10.0 0.00 0.03 0.03 85 1011.0
20260901212005 85 44 3.0 10.0 0.00 0.03 0.03 85 1011.0
20260901211754 85 24 3.0 8.0 0.00 0.03 0.03 85 1011.3
20260901211004 85 33 3.0 8.0 0.00 0.03 0.03 84 1011.3
20260901210503 86 314 2.0 8.0 0.00 0.03 0.03 84 1011.3
20260901210009 85 36 1.0 8.0 0.00 0.03 0.03 84 1010.9
20260901210003 86 36 3.0 8.0 0.00 0.03 0.03 84 1011.1
20260901205754 86 63 3.0 8.0 0.00 0.03 0.03 84 1011.1
20260901205002 86 38 2.0 7.0 0.00 0.03 0.03 83 1011.1
20260901204754 86 347 2.0 7.0 0.00 0.03 0.03 82 1011.3
20260901204002 86 19 2.0 7.0 0.00 0.03 0.03 83 1011.3
20260901203502 86 318 4.0 10.0 0.00 0.03 0.03 83 1011.3
20260901203053 85 76 3.0 12.0 0.00 0.03 0.03 83 1011.2
20260901203002 86 65 5.0 13.0 0.00 0.03 0.03 83 1011.4
20260901202501 86 87 4.0 13.0 0.00 0.03 0.03 82 1011.4
20260901202307 86 81 3.0 9.0 0.00 0.03 0.03 84 1011.4
20260901201532 86 36 1.0 9.0 0.00 0.03 0.03 84 1011.4
20260901201501 86 35 3.0 9.0 0.00 0.03 0.03 84 1011.5
20260901201003 86 57 2.0 9.0 0.00 0.03 0.03 84 1011.5
20260901200757 86 73 2.0 7.0 0.00 0.03 0.03 84 1011.5
20260901200034 86 69 2.0 7.0 0.00 0.03 0.03 84 1011.5
20260901200001 86 72 2.0 7.0 0.00 0.03 0.03 84 1011.7
20260901195501 86 59 2.0 7.0 0.00 0.03 0.03 83 1011.7
20260901195007 86 40 2.0 5.0 0.00 0.03 0.03 83 1011.7
20260901194510 86 89 1.0 7.0 0.00 0.03 0.03 83 1011.4
20260901194504 86 89 2.0 7.0 0.00 0.03 0.03 83 1011.6
20260901194002 86 36 3.0 9.0 0.00 0.03 0.03 83 1011.6
20260901193750 86 61 3.0 9.0 0.00 0.03 0.03 82 1011.6
20260901193008 86 93 3.0 6.0 0.00 0.03 0.03 83 1011.6
20260901193003 86 93 3.0 7.0 0.00 0.03 0.03 83 1011.7
20260901192748 86 57 3.0 7.0 0.00 0.03 0.03 83 1011.7
20260901192249 86 15 3.0 10.0 0.00 0.03 0.03 83 1011.7
20260901191842 86 89 4.0 10.0 0.00 0.03 0.03 82 1011.9
20260901191540 86 32 4.0 10.0 0.00 0.03 0.03 83 1011.9
20260901191518 86 32 3.0 10.0 0.00 0.03 0.03 83 1011.8
20260901190504 86 52 3.0 9.0 0.00 0.03 0.03 82 1011.9
20260901190014 86 88 0.0 10.0 0.00 0.03 0.03 83 1011.9
20260901190005 87 88 3.0 10.0 0.00 0.03 0.03 83 1012.0
20260901185502 87 93 3.0 10.0 0.00 0.03 0.03 82 1012.0
20260901185001 87 85 3.0 8.0 0.00 0.03 0.03 81 1012.0
20260901184509 87 60 2.0 8.0 0.00 0.03 0.03 81 1012.1
20260901184504 87 60 4.0 8.0 0.00 0.03 0.03 81 1012.2
20260901184003 87 105 4.0 9.0 0.00 0.03 0.03 82 1012.2
20260901183747 87 85 4.0 9.0 0.00 0.03 0.03 80 1012.2
20260901183006 87 55 2.0 15.0 0.00 0.03 0.03 81 1012.4
20260901183001 88 55 4.0 15.0 0.00 0.03 0.03 81 1012.5
20260901182748 88 47 4.0 15.0 0.00 0.03 0.03 81 1012.5
20260901182002 88 71 3.0 7.0 0.00 0.03 0.03 77 1012.5
20260901181750 88 66 3.0 7.0 0.00 0.03 0.03 81 1012.6
20260901181002 88 62 3.0 7.0 0.00 0.03 0.03 80 1012.6
20260901180503 89 264 3.0 8.0 0.00 0.03 0.03 81 1012.6
20260901180055 88 32 3.0 8.0 0.00 0.03 0.03 80 1012.4
20260901180002 89 40 4.0 9.0 0.00 0.03 0.03 81 1012.5
20260901175502 88 324 4.0 9.0 0.00 0.03 0.03 81 1012.5
20260901175001 88 72 3.0 9.0 0.00 0.03 0.03 80 1012.5
20260901174530 87 38 2.0 10.0 0.00 0.03 0.03 82 1012.5
20260901174502 87 40 3.0 10.0 0.00 0.03 0.03 82 1012.6
20260901174003 88 339 3.0 10.0 0.00 0.03 0.03 81 1012.6
20260901173504 88 20 4.0 10.0 0.00 0.03 0.03 82 1012.6
20260901173029 87 44 3.0 10.0 0.00 0.03 0.03 81 1012.7
20260901173002 88 53 4.0 10.0 0.00 0.03 0.03 81 1012.8
20260901172752 88 62 3.0 11.0 0.00 0.03 0.03 81 1012.8
20260901172002 88 340 3.0 11.0 0.00 0.03 0.03 81 1012.8
20260901171535 88 5 2.0 8.0 0.00 0.03 0.03 81 1012.9
20260901171503 88 38 3.0 8.0 0.00 0.03 0.03 81 1013.1
20260901171256 89 28 3.0 8.0 0.00 0.03 0.03 80 1013.1
20260901170502 88 350 3.0 6.0 0.00 0.03 0.03 80 1013.1
20260901170031 88 44 2.0 8.0 0.00 0.03 0.03 80 1012.9
20260901170002 88 67 4.0 10.0 0.00 0.03 0.03 80 1013.1
20260901165502 88 42 4.0 10.0 0.00 0.03 0.03 79 1013.1
20260901165001 88 326 3.0 10.0 0.00 0.03 0.03 80 1013.1
20260901164520 87 45 2.0 8.0 0.00 0.03 0.03 80 1012.9
20260901164503 87 42 3.0 8.0 0.00 0.03 0.03 81 1013.1
20260901164252 88 49 4.0 11.0 0.00 0.03 0.03 79 1013.1
20260901163501 89 39 4.0 11.0 0.00 0.03 0.03 78 1013.1
20260901163014 89 43 2.0 10.0 0.00 0.03 0.03 79 1013.0
20260901163001 89 40 4.0 10.0 0.00 0.03 0.03 79 1013.1
20260901162501 89 46 4.0 10.0 0.00 0.03 0.03 77 1013.1
20260901162000 89 19 3.0 9.0 0.00 0.03 0.03 77 1013.1